Temp
24 24 24 23 24 24 24 24 24 24 24 24 25 25 25 25 25 25 25 26 25 25 25 25 25 25 24 24 24 24 24 24 24 24 24 24 23 24 24 24 24 24
24 24 24 23 23 23 24 24 24 24 24 24 25 25 25 25 25 25 25 25 25 25 25 25 25 25 24 24 24 24 24 24 24 24 24 24 24 24 24 24 24 24
24 24 24 23 23 23 23 24 24 24 24 24 24 24 25 25 25 25 25 25 25 25 25 25 25 25 25 24 24 24 24 24 24 24 24 24 24 24 24 24 24 24
23 23 24 24 24 23 23 23 23 24 24 24 24 25 25 25 25 25 25 25 25 25 25 25 25 25 25 25 24 24 24 24 24 24 24 24 24 24 24 24 24 24
23 23 23 23 23 23 23 23 23 24 24 24 25 25 25 25 25 25 25 25 25 25 25 25 25 25 25 25 24 24 24 24 24 24 23 24 24 24 24 24 24 24
23 23 23 23 23 23 23 23 24 24 24 24 24 24 25 25 25 25 25 25 25 25 25 25 25 25 25 25 24 24 24 24 24 24 24 23 24 24 24 24 24 24
23 23 23 23 23 23 23 23 23 24 24 24 24 24 24 25 25 25 25 25 25 25 25 25 25 25 25 25 24 24 24 24 24 24 24 24 24 24 24 24 24 24
24 24 23 23 23 23 23 23 23 24 24 24 24 24 24 24 25 25 25 25 25 25 25 25 25 25 25 25 25 24 24 24 24 24 24 23 23 23 23 24 24 24
24 24 23 23 23 23 23 23 23 24 24 24 24 24 24 24 25 25 25 25 25 25 25 25 25 25 25 25 25 25 24 24 24 24 23 23 23 23 23 23 23 23
24 24 23 23 23 23 23 23 23 24 23 24 24 24 24 24 24 24 25 25 25 25 25 25 25 25 25 25 25 25 24 24 24 24 23 23 23 23 23 23 23 23
24 24 23 23 23 23 23 23 23 23 23 24 24 24 24 24 24 24 24 24 24 25 25 25 25 25 25 25 25 25 24 24 24 24 24 24 23 23 23 23 23 23
24 24 24 23 23 23 23 23 23 23 23 23 24 24 24 24 24 24 24 24 24 24 25 25 25 25 25 25 25 25 24 24 24 24 24 24 24 23 23 23 23 23
24 24 24 24 24 24 23 23 23 23 23 23 23 24 24 24 24 24 24 24 24 24 24 24 24 24 25 25 24 24 24 24 24 24 24 24 24 24 23 23 23 23
24 24 24 24 24 24 24 23 23 23 23 23 23 23 23 24 24 24 24 24 24 24 24 24 24 24 24 24 24 24 24 24 24 24 24 24 24 24 23 23 23 23
24 24 24 24 24 24 24 23 23 23 23 23 23 23 23 24 24 24 24 24 24 24 24 24 24 24 24 24 24 24 24 24 24 24 24 24 24 23 23 23 23 23
24 24 24 24 24 24 24 23 23 23 23 23 23 23 23 24 24 24 24 24 24 24 24 24 24 24 24 24 24 24 24 24 24 24 24 23 23 23 23 23 23 23
24 24 24 24 24 24 24 23 23 23 23 23 23 23 23 23 24 24 24 24 24 24 24 24 24 24 24 24 24 24 24 24 24 24 24 23 23 23 23 23 23 23
24 24 24 24 24 24 24 24 23 23 23 23 23 23 23 23 24 24 24 24 24 24 24 24 24 24 24 24 24 24 24 24 24 24 24 23 23 23 23 23 23 23
25 24 24 24 24 24 24 24 23 23 23 23 23 23 23 23 24 24 24 24 24 24 24 24 24 24 24 24 24 24 24 24 24 24 24 24 23 23 23 23 23 23
25 25 24 24 24 24 24 24 24 23 23 23 23 23 23 23 24 24 24 24 24 24 24 24 24 24 24 24 24 24 24 24 24 24 24 24 24 24 24 24 23 23
25 25 25 25 24 24 24 24 24 24 24 23 24 24 24 24 24 24 24 24 24 24 24 24 24 24 24 25 25 25 24 24 24 24 24 24 24 24 24 24 24 24
25 25 25 25 25 24 24 24 24 24 24 24 24 24 24 24 24 24 24 24 24 24 24 24 24 24 25 25 25 25 24 24 24 24 24 24 24 24 24 24 24 24
26 26 25 25 25 24 24 24 24 24 24 24 24 24 24 24 24 24 24 24 24 24 24 24 24 24 25 25 25 25 25 24 24 24 24 24 24 24 24 24 24 24
26 26 26 25 25 25 25 25 24 24 24 24 24 24 24 24 24 24 24 24 24 24 24 24 24 25 25 25 25 25 25 25 25 24 24 24 24 24 24 24 24 24
27 26 26 26 25 25 25 25 25 25 25 25 24 24 24 24 24 24 24 24 25 25 25 25 25 25 25 25 25 25 25 25 25 25 24 24 24 24 24 24 24 24
27 27 26 26 26 26 26 25 25 25 25 25 25 24 24 24 24 25 25 25 25 25 25 25 25 25 25 25 25 25 25 25 25 25 24 24 24 24 23 24 24 24
Height
800 803 806 808 810 811 814 816 818 820 821 822 824 825 826 828 830 832 833 834 836 837 838 840 841 842 843 844 845 845 846 847 848 849 850 850 851 851 852 853 854 854
797 800 803 805 807 809 811 813 815 817 818 820 822 823 825 827 829 830 832 833 834 835 837 838 839 840 841 842 843 844 844 845 846 847 848 848 849 850 850 851 852 853
794 797 799 802 804 807 809 811 813 815 817 818 820 822 824 825 827 828 830 831 832 834 835 836 837 838 839 840 841 842 842 843 844 845 846 847 848 848 849 850 850 851
792 794 797 799 801 804 807 809 811 813 815 816 818 820 822 824 825 827 828 830 831 832 833 834 835 836 837 838 839 840 840 841 842 843 844 845 846 847 847 848 849 850
790 792 794 797 799 802 805 807 808 810 812 814 815 817 819 821 823 825 826 828 829 830 831 832 833 834 835 836 837 837 838 839 840 842 842 843 844 845 846 847 847 848
787 790 792 795 797 800 802 804 806 808 809 811 813 815 817 819 821 823 824 825 826 828 828 829 830 831 833 834 835 835 836 837 838 839 840 841 842 843 844 845 846 846
784 787 790 793 795 798 800 801 803 805 807 809 811 813 815 817 818 820 821 823 824 825 826 827 828 829 830 831 832 833 834 835 836 837 838 838 840 841 842 843 844 844
780 783 787 790 792 795 796 798 801 803 805 807 809 811 812 814 816 817 819 820 821 823 824 825 825 826 828 829 830 830 831 832 834 835 835 836 837 838 839 841 842 842
777 780 784 786 789 791 793 795 797 800 802 805 806 808 810 811 813 814 816 818 819 820 821 822 823 824 825 826 827 828 829 830 831 832 833 834 835 835 836 838 839 839
774 777 780 783 786 788 790 792 794 797 799 801 803 805 807 809 810 812 814 815 816 817 818 819 820 821 822 823 824 825 826 827 828 829 830 831 832 832 834 835 836 836
771 774 777 780 783 785 787 789 792 794 796 798 800 802 804 806 808 809 811 812 813 814 815 815 816 818 819 820 821 822 823 825 826 827 827 828 829 830 831 832 833 833
768 770 773 776 779 782 784 787 789 791 793 794 796 798 800 802 804 806 808 809 809 810 811 812 813 815 816 817 818 820 821 822 823 823 824 825 826 827 828 830 830 830
764 766 770 773 776 778 781 784 786 788 790 791 792 794 797 799 801 803 804 805 806 807 808 809 810 812 813 814 815 817 818 819 820 820 821 822 823 824 826 827 827 828
760 763 766 769 772 775 778 780 783 785 787 788 790 791 793 795 796 798 800 801 803 804 805 806 808 809 810 811 812 814 815 815 816 817 818 819 820 821 823 823 824 824
757 760 763 766 768 771 774 777 780 782 784 786 788 789 790 791 793 794 796 798 799 800 801 803 805 805 806 807 808 810 811 812 813 814 815 816 817 818 820 820 820 821
753 757 760 763 765 767 770 773 776 779 782 784 785 786 787 788 790 791 793 794 795 796 798 799 800 801 801 803 804 806 808 809 810 811 812 813 814 815 816 816 816 817
751 754 757 759 761 764 766 769 773 776 778 780 782 783 784 785 786 788 788 790 791 792 794 795 796 796 797 799 800 802 804 806 806 807 808 810 811 812 812 812 813 813
748 751 754 756 758 761 763 765 769 772 774 776 778 779 781 782 783 784 784 786 787 788 790 790 791 792 793 795 797 798 800 802 803 804 806 806 807 808 808 809 809 810
744 747 750 752 755 757 759 762 764 767 769 771 773 775 777 778 779 779 780 782 783 784 785 786 787 789 790 792 793 794 797 799 800 802 803 803 804 805 805 805 806 807
740 743 746 748 751 753 756 758 760 761 764 766 769 771 773 773 774 775 776 778 779 780 781 783 784 785 786 788 790 791 794 796 797 799 800 800 801 801 801 802 802 803
736 739 742 744 747 749 751 753 755 757 759 762 764 766 767 768 770 771 772 773 774 776 778 778 779 781 783 784 786 788 790 792 794 795 796 796 796 797 797 798 799 800
732 735 737 739 742 745 747 749 751 753 755 757 759 761 762 764 765 766 767 768 770 772 773 773 774 777 779 780 782 785 787 789 790 791 792 792 791 792 793 794 795 795
728 730 732 735 737 740 742 744 746 748 750 752 754 756 757 758 760 761 763 764 766 767 768 769 770 772 775 777 779 781 784 785 786 787 787 786 786 787 789 789 790 790
723 725 727 730 732 735 737 739 741 743 745 747 749 750 751 753 755 757 759 760 761 762 763 765 766 768 771 773 775 777 779 780 781 782 781 781 781 783 784 784 784 785
718 721 723 725 728 730 732 734 736 738 740 742 744 745 746 748 751 753 754 755 757 758 759 761 763 764 767 769 770 773 774 775 777 777 776 776 777 778 779 779 779 780
715 717 719 721 724 726 727 729 731 733 736 738 740 741 743 745 747 749 750 752 753 755 756 758 759 761 763 764 766 768 770 771 773 772 771 772 774 774 774 775 775 775
Wind_Speed
39 37 36 35 35 35 34 34 34 34 34 34 34 34 33 32 31 31 29 27 26 25 24 23 22 22 22 21 20 20 20 20 19 19 19 20 20 21 21 22 21 19
40 38 37 36 35 34 34 34 35 34 34 35 35 35 33 32 31 31 30 29 28 27 25 24 23 23 23 22 22 21 21 22 21 20 20 21 21 22 23 23 22 21
40 39 38 37 36 36 35 35 34 35 35 34 34 34 34 33 32 31 31 30 29 28 27 26 25 24 24 23 23 23 23 23 23 22 22 22 22 23 24 23 23 23
39 38 38 38 37 36 35 34 34 35 35 34 34 34 34 34 33 32 31 31 30 30 29 28 27 25 25 25 25 25 25 25 25 24 24 24 24 24 25 24 24 24
38 38 37 37 36 35 33 33 34 35 35 35 35 35 34 34 33 33 32 32 31 31 30 30 29 28 27 27 27 28 27 27 26 26 26 26 26 26 26 26 26 25
38 37 37 37 36 34 33 34 35 35 36 36 35 35 35 35 34 34 34 33 32 32 31 31 31 30 29 29 29 29 29 29 28 27 28 29 28 28 27 27 27 27
38 38 38 37 36 35 35 35 35 34 35 35 33 33 34 35 35 35 35 34 33 33 32 32 32 32 31 30 30 31 31 30 30 29 30 30 30 30 29 29 29 29
38 38 38 38 37 36 36 36 35 34 34 33 32 33 34 34 36 36 36 35 34 34 34 33 33 33 32 32 31 32 32 32 31 30 31 31 30 31 31 30 30 30
39 38 38 38 38 37 37 37 36 35 34 33 33 33 33 34 35 36 36 35 35 36 35 35 35 34 34 33 33 33 33 33 32 32 32 31 31 32 32 31 31 31
38 38 38 38 37 37 38 38 37 36 35 35 35 34 33 34 34 35 35 35 36 36 36 36 36 36 36 35 35 35 34 34 33 32 33 32 33 33 32 32 32 32
38 38 37 37 37 37 38 38 37 36 36 36 36 35 35 34 34 34 34 35 37 38 38 38 38 38 37 37 36 36 35 35 34 33 34 34 34 34 33 32 32 33
38 37 37 37 37 37 38 38 37 37 37 37 37 36 36 35 34 34 35 36 38 38 39 39 39 38 38 38 37 36 36 36 35 35 35 35 35 34 34 34 34 34
38 38 38 38 38 39 38 38 37 37 37 38 37 37 36 35 35 35 36 38 39 39 39 39 38 38 38 38 37 36 36 36 36 36 36 35 35 35 34 34 35 35
38 38 39 39 39 39 38 38 37 38 38 38 37 36 37 37 37 37 37 38 39 40 40 39 38 37 38 38 37 37 37 37 37 37 37 36 36 35 35 35 35 36
39 38 38 39 38 38 38 38 37 37 37 37 36 37 37 37 38 38 37 37 38 39 39 39 38 38 39 39 38 38 38 38 38 37 37 37 36 36 35 36 36 37
38 37 37 37 38 38 38 38 37 36 36 36 36 37 37 37 37 38 38 38 39 39 38 38 38 39 40 40 40 39 39 38 37 37 37 37 36 35 35 36 37 38
36 36 36 37 38 38 38 37 37 36 36 36 36 37 37 37 37 37 38 39 39 39 39 38 39 41 41 41 41 41 40 38 38 37 37 36 35 35 36 37 37 38
35 35 35 36 37 37 37 37 37 37 37 37 37 37 37 37 37 38 39 40 39 39 40 39 40 42 42 42 42 42 41 40 39 37 35 35 35 35 36 37 37 37
36 35 36 36 37 37 38 37 37 37 38 38 38 38 37 37 38 39 40 40 39 39 40 40 41 42 42 42 43 43 42 41 40 38 36 35 34 35 36 36 36 36
36 36 36 37 37 37 37 37 37 38 39 39 38 37 37 38 38 39 39 40 40 40 40 40 41 42 42 42 43 43 42 41 41 40 38 36 36 36 36 36 36 36
36 36 36 37 37 37 37 37 38 38 39 38 38 38 39 39 38 39 40 40 40 40 39 39 41 42 41 41 42 42 41 40 40 40 40 39 39 39 38 38 37 36
36 36 36 37 37 37 36 37 38 38 38 38 38 38 38 38 38 39 40 40 40 39 39 40 41 41 41 41 41 39 38 38 39 40 40 41 42 41 40 39 39 38
37 37 37 37 37 36 36 37 38 39 39 38 37 37 37 37 38 39 39 39 39 39 40 40 40 41 40 39 39 37 36 36 38 39 40 42 43 42 41 41 40 40
38 38 38 37 36 36 37 38 39 39 39 39 38 38 38 38 38 37 38 39 39 40 40 39 39 39 38 38 38 37 36 36 37 38 40 42 42 41 41 41 42 42
39 39 39 37 37 37 38 39 40 40 39 39 38 38 37 37 36 35 36 37 38 39 39 38 38 38 37 37 38 37 36 36 36 37 39 39 39 38 39 40 41 42
37 38 38 38 37 38 39 40 40 39 37 36 36 36 35 34 33 34 34 35 36 36 36 37 37 36 36 37 37 36 37 37 36 37 38 37 36 36 36 37 38 39
Wind_Direction
209 209 210 212 214 215 216 217 217 219 220 221 222 224 225 226 225 224 227 231 235 239 242 246 247 244 242 244 247 249 250 249 246 244 242 243 246 247 246 246 248 249
208 209 210 212 214 217 218 219 220 220 221 222 223 225 226 226 226 226 228 231 235 238 241 244 247 245 243 243 245 248 250 248 247 246 245 245 247 248 248 248 249 249
208 208 209 211 214 217 219 220 221 222 223 224 224 225 226 227 228 229 230 231 235 238 240 242 245 246 244 243 245 248 249 249 247 247 247 248 249 250 250 251 251 252
208 209 210 212 215 217 218 219 220 223 223 224 225 225 226 228 229 230 231 233 236 238 240 242 243 244 244 244 245 247 249 250 250 249 250 251 251 251 252 252 253 254
210 210 211 213 215 216 217 218 220 222 223 225 226 226 226 227 228 230 232 233 235 237 239 241 242 243 244 244 245 247 249 250 251 250 251 253 254 254 253 252 252 253
211 211 212 214 215 215 216 218 221 223 224 225 225 225 226 226 228 230 232 233 234 235 237 239 241 242 243 243 244 246 248 250 251 251 250 252 253 254 255 253 252 253
210 212 213 214 214 215 216 219 221 222 225 225 224 225 226 226 228 230 232 233 233 234 236 238 240 241 242 242 242 245 247 248 250 249 249 251 251 252 253 252 251 252
210 211 212 213 214 215 217 218 220 221 223 224 224 225 226 227 228 229 232 233 233 234 236 238 240 241 241 241 241 243 245 246 246 246 247 248 248 249 250 250 250 251
209 211 212 213 213 214 217 218 220 221 222 223 224 225 226 228 229 230 231 232 234 235 235 237 239 241 241 241 241 242 243 243 244 244 245 245 246 247 248 248 247 248
208 210 211 212 213 214 217 219 220 221 221 223 225 225 227 229 231 232 232 233 234 235 235 236 237 238 239 240 241 242 242 243 243 243 244 245 245 247 247 247 246 246
207 209 210 211 213 215 217 219 220 221 221 223 225 225 227 229 231 231 232 232 234 235 235 235 236 236 237 239 241 241 242 243 244 244 244 245 246 247 247 247 246 247
207 208 209 211 213 215 218 220 220 220 221 222 223 225 226 228 229 230 231 232 234 235 235 235 235 235 236 238 240 240 241 243 244 245 245 246 246 247 247 247 248 249
207 208 209 211 213 216 218 220 221 221 221 222 223 223 225 226 228 229 231 232 234 235 235 236 235 235 236 238 238 239 240 241 243 245 245 246 247 247 247 248 248 249
208 209 210 212 213 216 218 220 221 222 222 223 222 222 224 225 227 229 231 232 234 236 237 237 237 236 237 238 238 238 239 240 242 243 244 245 247 247 248 248 249 250
208 209 210 212 213 215 217 219 221 222 223 223 223 223 224 225 227 229 231 233 234 236 237 238 238 238 238 238 238 237 238 239 240 241 243 244 245 247 248 248 249 250
208 209 210 211 212 214 216 218 220 222 223 224 224 224 225 226 227 229 231 233 235 237 237 238 238 240 240 240 240 239 238 239 240 241 242 242 244 245 247 248 249 250
207 209 210 211 213 214 215 217 219 220 222 224 224 225 226 226 227 228 230 233 235 237 238 239 239 241 242 242 242 241 240 239 239 241 241 241 243 244 245 247 249 250
207 208 210 211 213 214 215 216 217 219 221 222 223 224 225 226 227 229 231 233 235 237 239 240 241 243 244 244 244 244 242 240 240 241 241 241 242 243 245 247 249 250
206 207 209 211 213 214 215 215 216 217 219 221 223 224 225 226 227 229 231 233 234 237 239 241 243 244 245 246 246 246 245 243 241 241 242 243 244 244 246 247 249 250
206 207 209 211 213 213 214 215 215 217 219 220 222 223 224 225 227 229 231 233 234 236 238 241 243 245 246 247 247 248 247 246 244 243 244 245 246 247 248 248 249 250
206 207 209 211 212 213 213 214 216 217 219 219 220 222 223 225 226 228 231 232 234 236 238 240 243 244 246 247 248 249 248 247 246 245 245 246 248 249 249 250 251 251
206 207 209 211 211 212 212 214 216 218 219 219 220 222 224 225 226 228 230 232 234 235 236 239 242 244 245 246 248 249 248 248 247 246 246 247 249 250 250 251 252 252
207 207 209 211 211 210 212 214 216 218 219 219 219 221 223 224 226 228 230 232 233 234 235 237 241 243 244 245 247 248 247 246 246 246 246 248 249 251 251 252 253 253
208 209 209 210 210 210 212 214 216 219 220 219 218 220 222 224 225 228 230 231 233 234 235 237 240 242 243 244 245 246 245 245 245 244 245 247 249 250 251 252 254 254
209 210 210 211 211 212 214 215 217 219 220 220 219 220 222 224 225 227 229 231 233 235 236 237 239 242 243 243 244 244 244 245 244 242 243 245 247 249 251 252 254 255
211 211 212 212 213 214 216 217 218 219 219 219 220 221 223 224 225 226 229 232 233 235 236 237 238 241 242 243 244 244 244 244 242 241 242 244 246 248 250 252 254 255